This demonstration page uses our WeatherBlox Daily Observations layout. Learn more.

Left ArrowRight Arrow

Hourly Observations for November 13, 2015

Temp ( °F °C ) Dew Point ( °F °C ) Humidity (%) Winds ( mph kmh ) Pressure ( in mb ) Visibility ( mi km ) Precip ( " mm )
12:53 am 00:53 Clear 44 6.7 36 2.2 73 73 SE 3 6 30.11 1020 10 16 0.00 0.00
1:53 am 01:53 Clear 44 6.7 36 2.2 73 73 NE 3 6 30.10 1019 10 16 0.00 0.00
2:53 am 02:53 Clear 44 6.7 35 1.7 71 71 Calm 30.09 1019 10 16 0.00 0.00
3:53 am 03:53 Clear 40 4.4 34 1.1 79 79 Calm 30.10 1019 10 16 0.00 0.00
4:53 am 04:53 Clear 40 4.4 34 1.1 79 79 Calm 30.11 1020 10 16 0.00 0.00
5:53 am 05:53 Clear 41 5 35 1.7 79 79 Calm 30.12 1020 10 16 0.00 0.00
6:23 am 06:23 Clear 41 5 36 2 81 81 undefined N/A 30.12 1020 N/A 0.00 0.00
6:53 am 06:53 Clear 40 4.4 34 1.1 79 79 Calm 30.14 1021 10 16 0.00 0.00
7:53 am 07:53 Sunny 44 6.7 37 2.8 76 76 N 5 7 30.15 1021 10 16 0.00 0.00
8:53 am 08:53 Sunny 50 10 39 3.9 66 66 Calm 30.16 1021 10 16 0.00 0.00
9:53 am 09:53 Sunny 54 12.2 40 4.4 59 59 Calm 30.15 1021 10 16 0.00 0.00
10:53 am 10:53 Sunny 58 14.4 41 5 53 53 Calm 30.13 1020 10 16 0.00 0.00
11:53 am 11:53 Sunny 61 16.1 39 3.9 44 44 Calm 30.09 1019 10 16 0.00 0.00
12:53 pm 12:53 Sunny 64 17.8 38 3.3 38 38 Calm 30.05 1018 10 16 0.00 0.00
3:53 pm 15:53 Sunny 66 18.9 36 2.2 33 33 Calm 30.01 1016 10 16 0.00 0.00
4:53 pm 16:53 Sunny 63 17.2 38 3.3 40 40 Calm 30.01 1016 10 16 0.00 0.00
5:53 pm 17:53 Clear 58 14.4 38 3.3 48 48 NNE 3 6 30.01 1016 10 16 0.00 0.00
6:53 pm 18:53 Clear 52 11.1 39 3.9 61 61 Calm 30.02 1017 10 16 0.00 0.00
7:53 pm 19:53 Clear 50 10 39 3.9 66 66 Calm 30.02 1017 10 16 0.00 0.00
8:53 pm 20:53 Clear 48 8.9 39 3.9 71 71 Calm 30.02 1017 10 16 0.00 0.00
9:53 pm 21:53 Clear 47 8.3 39 3.9 74 74 Calm 30.02 1017 10 16 0.00 0.00
10:53 pm 22:53 Clear 45 7.2 37 2.8 74 74 Calm 30.02 1017 10 16 0.00 0.00
11:53 pm 23:53 Clear 44 6.7 38 3.3 79 79 Calm 30.01 1016 9 14 0.00 0.00

Powered by AerisWeather